Hermosillo, México

4:31 AM MST en Diciembre 11, 2017 (GMT -0700)
Gen Ignacio Pesqueira Garcia

Tiempo Historia de MMHO - Junio, 2017

Change the Weather History Date:

Lunes, Junio 19, 2017

  Actual Average Record
Temperature  
Temperatura media 92 ° F -  
Temperatura máxima 112 ° F 100 ° F 113 ° F (1998)
Temperatura mínima 73 ° F 76 ° F 71 ° F (1998)
Cooling Degree Days 28    
Growing Degree Days 42 (Base 50)    
Moisture  
Punto de rocío 55 ° F    
Average Humidity 27    
Maximum Humidity 51    
Minimum Humidity 7    
Precipitación  
Precipitación 0.00 pul - - ()
Presión al nivel del mar  
Presión al nivel del mar 29.71 pul    
Viento  
Velocidad del viento 5 mph ()    
Velocidad máxima del viento 15 mph    
Max Gust Speed -    
Visibilidad 9.3 Millas    
Eventos      
Averages and records for this station are not official NWS values.
T = Trace of Precipitation, MM = Missing Value Source: Averaged Metar Reports

Daily Weather History Graph

Daily Weather History Graph

Search for Another Location

Airport or City:

Trip Planner

Search our weather history database for the weather conditions in past years. The results will help you decide how hot, cold, wet, or windy it might be!

Date:

Astronomía

Jun. 19, 2017 Salida Puesta
Hora real 6:25 AM MDT 8:25 PM MDT
Crepúsculo civil 5:58 AM MDT 8:52 PM MDT
Crepúsculo náutico 5:25 AM MDT 9:25 PM MDT
Crepúsculo astronómico 4:50 AM MDT 10:00 PM MDT
Luna 2:51 AM MDT (6/19) 3:43 PM MDT (6/19)
Horas de luz 14h 54m
Horas de luz
14h 00m
Creciente menguante, 26% of the Moon is Illuminated
Jun 19
Creciente menguante
Jun 23
Nueva
Jun 30
Cuarto creciente
Jul 8
Luna llena
Jul 16
Cuarto menguante

Hourly Weather History & Observations

Hora (MDT) Temp. Índice de calor Punto de rocío Humedad Presión Visibilidad Wind Dir Velocidad del viento Velocidad de ráfagas Precip Eventos Condiciones
12:40 AM 84.2 ° F 83.8 ° F 59.0 ° F 42% 29.75 pul 10.0 mi SO 4.6 mph - N/A   Parcialmente nublado
1:49 AM 80.6 ° F 81.1 ° F 59.0 ° F 48% 29.74 pul 10.0 mi NNO 3.5 mph - N/A   Despejado
2:40 AM 80.6 ° F 81.1 ° F 59.0 ° F 48% 29.70 pul 10.0 mi NNO 3.5 mph - N/A   Despejado
3:40 AM 78.8 ° F - 59.0 ° F 51% 29.72 pul 10.0 mi Sin viento Sin viento - N/A   Despejado
4:40 AM 78.8 ° F - 57.2 ° F 47% 29.72 pul 10.0 mi Norte 4.6 mph - N/A   Despejado
5:41 AM 78.8 ° F - 57.2 ° F 47% 29.69 pul 10.0 mi NE 3.5 mph - N/A   Despejado
6:42 AM 80.6 ° F 80.3 ° F 53.6 ° F 39% 29.73 pul 10.0 mi Este 4.6 mph - N/A   Despejado
7:40 AM 82.4 ° F 82.0 ° F 57.2 ° F 42% 29.74 pul 10.0 mi SSE 4.6 mph - N/A   Despejado
8:40 AM 81 ° F - 56 ° F 33% 29.75 pul 7 mi Este 2.2 mph - -  
8:41 AM 86.0 ° F 84.5 ° F 55.4 ° F 35% 29.74 pul 10.0 mi Sur 4.6 mph - N/A   Despejado
9:44 AM 91.4 ° F - 51.8 ° F 26% 29.78 pul 10.0 mi SE 5.8 mph - N/A   Despejado
10:43 AM 96.8 ° F - 50.0 ° F 20% 29.78 pul 10.0 mi SE 6.9 mph - N/A   Despejado
11:40 AM 100 ° F - 53 ° F 13% 29.73 pul 7 mi OSO 2.2 mph - -  
11:44 AM 104.0 ° F - 48.2 ° F 15% 29.74 pul 10.0 mi SSO 8.1 mph - N/A   Despejado
12:50 PM 105.8 ° F - 42.8 ° F 12% 29.75 pul 10.0 mi SO 4.6 mph - N/A   Despejado
1:43 PM 109.4 ° F - 41.0 ° F 10% 29.73 pul 10.0 mi OSO 9.2 mph - N/A   Despejado
2:40 PM 110 ° F - 50 ° F 7% 29.65 pul 7 mi SSO 2.2 mph - -  
2:42 PM 109.4 ° F - 44.6 ° F 11% 29.69 pul 10.0 mi SSO 12.7 mph - N/A   Despejado
3:40 PM 109.4 ° F 107.9 ° F 53.6 ° F 16% 29.70 pul 10.0 mi SSO 15.0 mph - N/A   Despejado
4:41 PM 107.6 ° F 108.2 ° F 59.0 ° F 20% 29.68 pul 10.0 mi SO 6.9 mph - N/A   Despejado
5:40 PM 109 ° F - 63 ° F 15% 29.61 pul 7 mi SO 2.2 mph - -   Despejado
5:40 PM 107.6 ° F 107.5 ° F 57.2 ° F 19% 29.64 pul 10.0 mi OSO 12.7 mph - N/A   Despejado
6:40 PM 105.8 ° F 104.9 ° F 55.4 ° F 19% 29.67 pul 10.0 mi OSO 12.7 mph - N/A   Despejado
7:40 PM 100.4 ° F 99.7 ° F 57.2 ° F 24% 29.68 pul 10.0 mi SO 11.5 mph - N/A   Despejado
8:40 PM 98 ° F - 56 ° F 16% 29.65 pul 7 mi OSO 6.7 mph - -   Despejado
8:40 PM 98.6 ° F 96.4 ° F 53.6 ° F 22% 29.67 pul 10.0 mi OSO 8.1 mph - N/A   Nubes dispersas
10:41 PM 89.6 ° F 88.9 ° F 59.0 ° F 36% 29.75 pul 10.0 mi SO 4.6 mph - N/A   Nubes dispersas
11:40 PM 90 ° F - 58 ° F 24% 29.70 pul 5 mi ONO 2.2 mph - -   Parcialmente nublado
11:43 PM 89.6 ° F 88.1 ° F 57.2 ° F 33% 29.74 pul 10.0 mi Sin viento Sin viento - N/A   Nubes dispersas